[[[{"header":{"parameterUnit":"kt","parameterCategory":2,"dx":1,"dy":1,"la1":30.253999710083008,"la2":30.299108505249023,"lo1":-89.0895004272461,"lo2":-89.04439544677734,"nx":28,"ny":28,"refTime":"2022-10-19T21:00:00:Z","depth":0,"parameterNumber":1,"parameterNumberName":"U-component_of_WINDS"},"data":[-4.8878,-4.9057,-4.9041,-4.9238,-4.9256,-4.9389,-4.9431,-4.9484,-4.9521,-4.9677,-4.9764,-4.9766,-4.9798,-4.9899,-4.9993,-4.9991,-5.0036,-5.0111,-5.0098,-4.9772,-4.9726,-4.9683,-4.9641,-5.0119,-5.0119,-5.0441,-5.0444,-5.0446,-4.8643,-4.8663,-4.8761,-4.8846,-4.893,-4.8847,-4.8908,-4.8985,-4.9106,-4.9153,-4.9237,-4.9373,-4.9478,-4.9484,-4.9584,-4.9669,-4.9638,-4.9698,-4.9695,-4.9702,-4.9351,-4.9307,-4.9721,-4.9721,-4.9721,-4.9721,-4.9721,-4.9721,-4.8211,-4.8318,-4.8359,-4.8466,-4.8503,-4.856,-4.866,-4.8659,-4.8755,-4.8856,-4.8815,-4.8952,-4.8996,-4.9107,-4.914,-4.9247,-4.9178,-4.9239,-4.9257,-4.9275,-4.9299,-4.8847,-4.9262,-4.926,-4.9259,-4.9258,-4.9257,0,-4.7891,-4.787,-4.7962,-4.8051,-4.8127,-4.8194,-4.8252,-4.8313,-4.8262,-4.8344,-4.8461,-4.8526,-4.8654,-4.8764,-4.8852,-4.8874,-4.8801,-4.8789,-4.8832,-4.8859,-4.8871,-4.8874,-4.8309,-4.8779,-4.8775,-4.8772,-4.8769,-4.8768,-4.7461,-4.7586,-4.7619,-4.7687,-4.7714,-4.7823,-4.7885,-4.7829,-4.7898,-4.7962,-4.806,-4.8167,-4.8251,-4.8442,-4.8441,-4.8537,-4.8504,-4.8686,-4.8519,-4.8537,-4.8516,-4.8512,-4.8527,-4.8723,-4.8729,-4.8734,-4.8737,0,-4.7221,-4.7192,-4.738,-4.74,-4.7409,-4.7543,-4.7561,-4.7666,-4.7652,-4.7795,-4.7824,-4.7806,-4.7922,-4.7891,-4.8017,-4.7998,-4.8224,-4.8185,-4.821,-4.8203,-4.8368,-4.8356,-4.8896,-4.8966,-4.8462,-4.8467,-4.8471,0,-4.6846,-4.7011,-4.6959,-4.7069,-4.7252,-4.7191,-4.7374,-4.7381,-4.7417,-4.7528,-4.7436,-4.7543,-4.7485,-4.7588,-4.7559,-4.7737,-4.7759,-4.7757,-4.775,-4.7771,-4.7772,-4.7812,-4.7793,-4.7717,-4.7714,-4.7712,-4.771,0,-4.648,-4.6643,-4.6821,-4.6854,-4.6892,-4.6978,-4.6998,-4.7037,-4.7098,-4.7171,-4.7211,-4.7301,-4.7352,-4.7424,-4.7388,-4.7276,-4.7602,-4.7441,-4.7602,-4.7604,-4.7682,-4.7679,-4.8158,-4.7706,-4.7706,-4.7705,-4.7704,0,-4.6174,-4.6248,-4.6509,-4.6539,-4.6585,-4.6701,-4.6786,-4.6878,-4.6926,-4.6915,-4.6972,-4.6909,-4.7057,-4.6901,-4.7106,-4.6971,-4.7028,-4.7037,-4.7048,-4.7067,-4.6894,-4.7178,-4.7631,-4.7681,-4.7075,-4.7069,-4.7065,0,-4.5767,-4.602,-4.5971,-4.6219,-4.6333,-4.6223,-4.6351,-4.6396,-4.6392,-4.6488,-4.6483,-4.6594,-4.6469,-4.65,-4.6605,-4.6607,-4.6781,-4.6581,-4.6729,-4.6735,-4.6727,-4.7141,-4.7221,-4.7533,-4.6997,-4.7004,-4.7009,0,-4.5448,-4.5491,-4.5539,-4.5576,-4.5623,-4.5716,-4.5862,-4.5958,-4.6026,-4.6083,-4.6208,-4.6359,-4.6274,-4.6325,-4.6283,-4.6394,-4.6661,-4.6288,-4.6288,-4.6362,-4.6957,-4.7033,-4.7085,-4.6608,-4.6617,-4.6623,-4.6955,0,-4.5005,-4.5126,-4.5251,-4.5332,-4.5398,-4.555,-4.5515,-4.5589,-4.5542,-4.5534,-4.5713,-4.5741,-4.5841,-4.5888,-4.5843,-4.6106,-4.6059,-4.5966,-4.5817,-4.6086,-4.6196,-4.624,-4.5657,-4.5652,-4.5648,-4.5645,0,0,-4.4627,-4.4799,-4.474,-4.4879,-4.4932,-4.4816,-4.4982,-4.502,-4.51,-4.5141,-4.5055,-4.5275,-4.5303,-4.5525,-4.5606,-4.5644,-4.569,-4.5597,-4.5956,-4.5991,-4.6024,-4.6141,-4.6187,-4.5638,-4.5636,-4.5635,-4.5634,0,-4.4459,-4.4484,-4.4647,-4.4683,-4.4734,-4.4717,-4.4756,-4.4787,-4.479,-4.4963,-4.4869,-4.4971,-4.5147,-4.5191,-4.5236,-4.5567,-4.5493,-4.5598,-4.579,-4.5918,-4.5958,-4.5993,-4.6117,-4.6161,-4.5624,-4.5625,-4.5625,0,-4.4144,-4.4165,-4.4239,-4.435,-4.4383,-4.4501,-4.4334,-4.4464,-4.4553,-4.4422,-4.4596,-4.4608,-4.4661,-4.4873,-4.4967,-4.4893,-4.5316,-4.5174,-4.5198,-4.521,-4.5332,-4.538,-4.5423,-4.486,-4.4857,-4.4855,0,0,-4.4004,-4.4115,-4.4121,-4.4311,-4.4338,-4.4315,-4.4374,-4.4333,-4.4381,-4.4402,-4.4416,-4.4468,-4.4569,-4.4638,-4.4732,-4.4968,-4.4978,-4.5081,-4.5117,-4.5147,-4.5175,-4.5305,-4.5353,-4.4845,-4.4845,-4.4845,0,0,-4.3938,-4.3953,-4.3896,-4.4111,-4.416,-4.4181,-4.4299,-4.4231,-4.4311,-4.4291,-4.4229,-4.424,-4.4437,-4.4453,-4.4329,-4.468,-4.4531,-4.456,-4.4663,-4.4709,-4.4744,-4.4739,-4.4165,0,0,0,0,0,-4.375,-4.395,-4.3898,-4.3929,-4.407,-4.4209,-4.4227,-4.418,-4.4076,-4.4171,-4.4172,-4.4086,-4.4374,-4.4263,-4.4295,-4.4436,-4.4723,-4.4744,-4.4765,-4.4954,-4.5001,-4.5041,0,0,0,0,0,0,-4.3761,-4.3799,-4.3893,-4.3923,-4.3954,-4.4201,-4.4016,-4.4008,-4.4065,-4.4046,-4.4088,-4.4087,-4.4051,-4.4243,-4.4273,-4.4408,-4.4155,-4.4731,-4.475,-4.4766,-4.497,-4.5009,-4.5042,0,0,0,0,0,-4.3771,-4.3801,-4.4038,-4.3919,-4.3946,-4.3932,-4.4008,-4.4,-4.4043,-4.4045,-4.404,-4.4003,-4.4056,-4.4078,-4.426,-4.4395,-4.4134,-4.4145,-4.4743,-4.4758,-4.4771,-4.4989,0,0,0,0,0,0,-4.3777,-4.3796,-4.4043,-4.4049,-4.384,-4.3917,-4.3927,-4.3994,-4.4037,-4.4035,-4.3955,-4.3939,-4.4062,-4.4078,-4.4096,-4.4394,-4.4116,-4.4128,-4.4135,-4.4754,-4.4766,-4.4776,0,0,0,0,0,0,-4.3779,-4.3802,-4.4046,-4.3948,-4.3943,-4.3904,-4.3913,-4.406,-4.4039,-4.3945,-4.3933,-4.3947,-4.4036,-4.4079,-4.4092,-4.4324,-4.4103,-4.4114,-4.4122,-4.4127,-4.4764,-4.4773,0,0,0,0,0,0,-4.3788,-4.3808,-4.3946,-4.3942,-4.3937,-4.4007,-4.4033,-4.418,-4.3953,-4.3944,-4.3932,-4.3922,-4.404,-4.4052,-4.4091,-4.4318,-4.4323,-4.4104,-4.4111,-4.4117,-4.412,0,0,0,0,0,0,0,-4.3795,-4.3673,-4.4004,-4.3937,-4.3933,-4.411,-4.4112,-4.4113,-4.3951,-4.3943,-4.3934,-4.3926,-4.404,-4.4052,-4.4064,-4.4313,0,0,-4.4102,-4.4108,0,0,0,0,0,0,0,0,-4.3664,-4.3671,-4.4004,-4.4005,-4.4006,-4.411,-4.4111,-4.4113,-4.395,-4.3943,-4.3936,-4.3929,-4.4043,-4.4053,-4.4063,0,0,0,0,0,0,0,0,0,0,0,0,0,0,0,-4.4004,-4.4005,0,-4.411,-4.4111,-4.4113,-4.3949,-4.3943,-4.3937,-4.3932,-4.4046,-4.4054,-4.4062,0,0,0,0,0,0,0,0,0,0,0,0,0,0,0,0,0,0,0,0,0,0,0,0,0,0,0,0,0,0,0,0,0,0,0,0,0,0,0,0,0,0,0,0,0,0,0,0,0,0,0,0,0,0,0,0,0,0,0,0,0,0,0,0,0,0,0,0,0]}],[{"header":{"parameterUnit":"kt","parameterCategory":2,"dx":1,"dy":1,"la1":30.253999710083008,"la2":30.299108505249023,"lo1":-89.0895004272461,"lo2":-89.04439544677734,"nx":28,"ny":28,"refTime":"2022-10-19T21:00:00:Z","depth":0,"parameterNumber":2,"parameterNumberName":"V-component_of_WINDS"},"data":[-11.4027,-11.4205,-11.42,-11.4399,-11.4426,-11.456,-11.4606,-11.4663,-11.4705,-11.4862,-11.4949,-11.4957,-11.4994,-11.5094,-11.5186,-11.5187,-11.5227,-11.5296,-11.5285,-11.4985,-11.4942,-11.4902,-11.4861,-11.5305,-11.5305,-11.5598,-11.5601,-11.5603,-11.3809,-11.384,-11.3943,-11.4039,-11.4127,-11.4057,-11.4125,-11.4203,-11.4323,-11.4377,-11.4462,-11.4597,-11.4702,-11.4714,-11.4812,-11.4892,-11.4863,-11.4919,-11.4913,-11.492,-11.4598,-11.4555,-11.4941,-11.4941,-11.4941,-11.4941,-11.4941,-11.4941,-11.3412,-11.3519,-11.3573,-11.3685,-11.373,-11.3794,-11.3893,-11.3902,-11.4,-11.4104,-11.4073,-11.4207,-11.4256,-11.4368,-11.4402,-11.4504,-11.4439,-11.4497,-11.4512,-11.4527,-11.4547,-11.4129,-11.4519,-11.4518,-11.4517,-11.4516,-11.4515,0,-11.3119,-11.3107,-11.3205,-11.3302,-11.3382,-11.3455,-11.352,-11.3581,-11.3545,-11.3628,-11.3745,-11.3811,-11.394,-11.4047,-11.4135,-11.4158,-11.409,-11.4081,-11.4121,-11.414,-11.4147,-11.4147,-11.3624,-11.407,-11.4066,-11.4063,-11.4061,-11.4059,-11.2719,-11.2844,-11.2895,-11.2965,-11.2999,-11.3111,-11.3176,-11.3135,-11.3205,-11.3277,-11.3371,-11.3478,-11.3563,-11.3749,-11.3752,-11.3847,-11.3814,-11.3986,-11.3828,-11.3841,-11.3819,-11.3813,-11.3825,-11.4018,-11.4023,-11.4028,-11.4031,0,-11.2495,-11.2481,-11.2671,-11.2708,-11.2721,-11.2853,-11.2883,-11.2986,-11.298,-11.3121,-11.3151,-11.3143,-11.3257,-11.3232,-11.3356,-11.3339,-11.3553,-11.3518,-11.3537,-11.3529,-11.3682,-11.3668,-11.4177,-11.4242,-11.3779,-11.3784,-11.3787,0,-11.2148,-11.2313,-11.2283,-11.2394,-11.2575,-11.2529,-11.2709,-11.2722,-11.2764,-11.2874,-11.2793,-11.2897,-11.2849,-11.2949,-11.2924,-11.3094,-11.3117,-11.3114,-11.3106,-11.3123,-11.3124,-11.3158,-11.3138,-11.308,-11.3078,-11.3075,-11.3073,0,-11.18,-11.1975,-11.2155,-11.2192,-11.2246,-11.2331,-11.2357,-11.2402,-11.2465,-11.2541,-11.2581,-11.2673,-11.2723,-11.2794,-11.2762,-11.2656,-11.2968,-11.2816,-11.2966,-11.2967,-11.3037,-11.3034,-11.3489,-11.307,-11.3069,-11.3068,-11.3068,0,-11.1518,-11.16,-11.1862,-11.1905,-11.1952,-11.207,-11.2158,-11.2253,-11.2306,-11.2299,-11.2358,-11.23,-11.2446,-11.2297,-11.2496,-11.2368,-11.2421,-11.2431,-11.2442,-11.2454,-11.2288,-11.2551,-11.2986,-11.3031,-11.2464,-11.2459,-11.2455,0,-11.1124,-11.1384,-11.1348,-11.1596,-11.1713,-11.1616,-11.1744,-11.1794,-11.1795,-11.1892,-11.189,-11.2001,-11.1884,-11.1915,-11.2017,-11.202,-11.2187,-11.1996,-11.2134,-11.214,-11.2126,-11.2526,-11.2598,-11.2893,-11.239,-11.2397,-11.2402,0,-11.0817,-11.0882,-11.0929,-11.097,-11.1029,-11.1125,-11.1273,-11.1373,-11.144,-11.1502,-11.1625,-11.1777,-11.1695,-11.1747,-11.1708,-11.1816,-11.2072,-11.1713,-11.1714,-11.178,-11.2355,-11.2423,-11.2473,-11.2022,-11.203,-11.2036,-11.235,0,-11.0397,-11.0524,-11.065,-11.0741,-11.0811,-11.0964,-11.094,-11.1016,-11.0974,-11.0971,-11.1148,-11.118,-11.1279,-11.1327,-11.1285,-11.1539,-11.1493,-11.1404,-11.1257,-11.1519,-11.1622,-11.1664,-11.1106,-11.1102,-11.1098,-11.1095,0,0,-11.0024,-11.0205,-11.0159,-11.0302,-11.0358,-11.0254,-11.0421,-11.0462,-11.0549,-11.059,-11.0508,-11.0728,-11.0757,-11.0975,-11.1054,-11.1093,-11.1136,-11.1045,-11.1394,-11.1428,-11.1459,-11.1569,-11.1613,-11.1088,-11.1087,-11.1085,-11.1084,0,-10.9866,-10.9902,-11.0067,-11.011,-11.017,-11.0159,-11.0199,-11.0239,-11.0245,-11.0418,-11.0328,-11.043,-11.0606,-11.065,-11.0694,-11.1018,-11.0944,-11.105,-11.1234,-11.1357,-11.1396,-11.143,-11.1546,-11.1589,-11.1075,-11.1075,-11.1076,0,-10.956,-10.9592,-10.9669,-10.9792,-10.983,-10.9951,-10.9792,-10.9925,-11.0014,-10.989,-11.0063,-11.0077,-11.0131,-11.034,-11.0432,-11.0359,-11.0771,-11.0635,-11.0658,-11.0667,-11.0785,-11.0831,-11.0872,-11.0328,-11.0326,-11.0324,0,0,-10.9426,-10.9544,-10.9563,-10.9756,-10.9786,-10.9772,-10.9832,-10.9796,-10.9849,-10.9871,-10.9887,-10.9939,-11.004,-11.0108,-11.0202,-11.0434,-11.0442,-11.0544,-11.0579,-11.0608,-11.0634,-11.0758,-11.0804,-11.0314,-11.0314,-11.0314,0,0,-10.9362,-10.9393,-10.9341,-10.9562,-10.9617,-10.9647,-10.9765,-10.9701,-10.9783,-10.9762,-10.9705,-10.9716,-10.991,-10.9926,-10.9805,-11.0149,-11.0004,-11.0033,-11.0132,-11.0176,-11.021,-11.0203,-10.9644,0,0,0,0,0,-10.9187,-10.9389,-10.9342,-10.9375,-10.9529,-10.9673,-10.9692,-10.9651,-10.955,-10.9645,-10.9648,-10.9563,-10.9849,-10.974,-10.9772,-10.9909,-11.0194,-11.0215,-11.0235,-11.0418,-11.0464,-11.0503,0,0,0,0,0,0,-10.92,-10.9241,-10.9336,-10.9376,-10.941,-10.9665,-10.9486,-10.948,-10.9539,-10.9521,-10.9565,-10.9564,-10.953,-10.972,-10.975,-10.9881,-10.9634,-11.0202,-11.022,-11.0237,-11.0433,-11.0471,-11.0504,0,0,0,0,0,-10.921,-10.9243,-10.9501,-10.9372,-10.9402,-10.9396,-10.9478,-10.9471,-10.9516,-10.9521,-10.9517,-10.948,-10.9535,-10.9557,-10.9738,-10.9868,-10.9613,-10.9624,-11.0214,-11.0228,-11.0241,-11.0452,0,0,0,0,0,0,-10.9217,-10.9237,-10.9506,-10.9513,-10.9293,-10.938,-10.9393,-10.9465,-10.9511,-10.951,-10.9431,-10.9416,-10.9541,-10.9557,-10.9575,-10.9867,-10.9595,-10.9607,-10.9614,-11.0225,-11.0236,-11.0246,0,0,0,0,0,0,-10.9219,-10.9244,-10.9509,-10.9412,-10.9408,-10.9367,-10.9378,-10.9524,-10.9513,-10.9418,-10.9407,-10.9424,-10.9513,-10.9558,-10.9571,-10.9801,-10.9582,-10.9593,-10.9601,-10.9606,-11.0234,-11.0243,0,0,0,0,0,0,-10.9229,-10.925,-10.941,-10.9407,-10.9402,-10.9482,-10.9494,-10.9653,-10.9433,-10.9418,-10.9411,-10.9401,-10.9517,-10.9529,-10.957,-10.9795,-10.9799,-10.9583,-10.959,-10.9595,-10.9599,0,0,0,0,0,0,0,-10.9237,-10.9103,-10.9463,-10.9402,-10.9398,-10.9581,-10.9583,-10.9585,-10.943,-10.9422,-10.9413,-10.9406,-10.9519,-10.9531,-10.9544,-10.9789,0,0,-10.9582,-10.9587,0,0,0,0,0,0,0,0,-10.9093,-10.9101,-10.9463,-10.9464,-10.9466,-10.9582,-10.9583,-10.9585,-10.9429,-10.9422,-10.9415,-10.9409,-10.9523,-10.9532,-10.9542,0,0,0,0,0,0,0,0,0,0,0,0,0,0,0,-10.9463,-10.9464,0,-10.9582,-10.9583,-10.9584,-10.9428,-10.9422,-10.9417,-10.9411,-10.9525,-10.9533,-10.9541,0,0,0,0,0,0,0,0,0,0,0,0,0,0,0,0,0,0,0,0,0,0,0,0,0,0,0,0,0,0,0,0,0,0,0,0,0,0,0,0,0,0,0,0,0,0,0,0,0,0,0,0,0,0,0,0,0,0,0,0,0,0,0,0,0,0,0,0,0]}]]]